sat.trackr.live / text

‹ back to catalog

STARLINK-5422

NORAD 54804 · 2022-175AY

PAYLOAD ACTIVE UNKNOWN

§ Identity

Operator
Country
US
Launch date
2022-12-17
Launch site
AFETR
Launch vehicle
Mass (kg)
RCS (m²)

Purposes: comms

External: N2YO · Heavens-Above · Gunter

§ Orbital elements

Epoch: 2026-05-25T02:41:54.295872Z

Period
95.44 min
Inclination
53.2140°
Eccentricity
0.0001305
Mean motion
15.08833557 rev/d
Perigee alt
538.9 km
Apogee alt
540.7 km
Semi-major
6,917.9 km
B*
9.4987e-6
RAAN
45.5633°
Arg perigee
87.6742°
Mean anomaly
272.4400°
Rev number
19,167

§ Raw data

STARLINK-54221 54804U 22175AY  26145.11243398 -.00000137  00000+0  94987-5 0  99902 54804  53.2140  45.5633 0001305  87.6742 272.4400 15.08833557191675

JSON: /api/v1/satellites/54804 · /tle

For live sub-satellite position, see the globe view (requires WebGL).

§ Visibility from observer

Set your observer location to see the next 7 days of passes ≥ 10°. The values pass through the URL so the page stays shareable.

No JS? Fill the form by hand. The geolocation button needs JavaScript.